This is the latest recevied weather packets stored in our database for station/object NI0Z. If no packets are shown the sender has not sent any weather packets the latest 10 day(s).
| Time | Temp. | Humidity | Pressure | Rain* | Wind** | Luminosity | Snow |
|---|---|---|---|---|---|---|---|
| 1777821734 | 17.78° C | 55% | - | 0 mm | - | - | - |
| 1777821430 | 17.78° C | 54% | - | 0 mm | - | - | - |
| 1777821128 | 17.22° C | 55% | - | 0 mm | - | - | - |
| 1777820824 | 17.22° C | 55% | - | 0 mm | - | - | - |
| 1777820520 | 16.67° C | 55% | - | 0 mm | - | - | - |
| 1777820217 | 16.67° C | 54% | - | 0 mm | - | - | - |
| 1777819915 | 16.67° C | 54% | - | 0 mm | - | - | - |
| 1777819612 | 16.67° C | 55% | - | 0 mm | - | - | - |
| 1777819310 | 16.11° C | 57% | - | 0 mm | - | - | - |
| 1777819006 | 16.11° C | 55% | - | 0 mm | - | - | - |
| 1777818703 | 16.11° C | 56% | - | 0 mm | - | - | - |
| 1777818400 | 15.56° C | 53% | - | 0 mm | - | - | - |
| 1777818097 | 15.56° C | 55% | - | 0 mm | - | - | - |
| 1777817793 | 15.56° C | 55% | - | 0 mm | - | - | - |
| 1777817491 | 15° C | 55% | - | 0 mm | - | - | - |
| 1777817186 | 14.44° C | 56% | - | 0 mm | - | - | - |
| 1777816884 | 14.44° C | 57% | - | 0 mm | - | - | - |
| 1777816581 | 13.89° C | 57% | - | 0 mm | - | - | - |
| 1777816278 | 13.89° C | 58% | - | 0 mm | - | - | - |
| 1777815976 | 13.33° C | 57% | - | 0 mm | - | - | - |
| 1777815673 | 13.33° C | 58% | - | 0 mm | - | - | - |
| 1777815370 | 13.33° C | 58% | - | 0 mm | - | - | - |
| 1777815067 | 12.78° C | 58% | - | 0 mm | - | - | - |
| 1777814763 | 12.22° C | 59% | - | 0 mm | - | - | - |
| 1777814460 | 12.22° C | 59% | - | 0 mm | - | - | - |
* Rain latest hour (hover to see other rain measurements)
** Current wind speed in m/s (hover to see current wind gust speed)